Location: Unspecified
(0.0000°N, 0.0000°E)
Time: 04:47:45
(UTC+00:00)

N. Korean satellite - Pass Details

Date: 10 May 2021
Orbit: 450 x 501 km, 97.2° (Epoch: 16 May)

Event Time Altitude Azimuth Distance (km) Brightness Sun altitude
Rises 04:36:20 0° 25° (NNE) 2,439 10.8 -19.0°
Reaches altitude 10° 04:38:28 10° 35° (NE) 1,572 9.9 -18.5°
Maximum altitude 04:41:33 34° 101° (E) 768 8.1 -17.8°
Drops below altitude 10° 04:44:40 10° 167° (SSE) 1,590 9.1 -17.1°
Sets 04:46:50 0° 177° (S) 2,472 10.0 -16.6°
